FW7336 Weather Reports


Display with metric or nautical units.
time (UTC)temp
F
wind
direction
speed
MPH
gust
MPH
rain 1hr
in
rain 24hr
in
rain mn
in
humidity
%
barometer
mb
20260506013102 45 335 7.0 12.0 0.00 0.00 0.00 84 1015.9
20260506011617 45 14 9.0 14.0 0.00 0.00 0.00 84 1016.1
20260506010141 45 13 8.0 15.0 0.00 0.00 0.00 84 1015.9
20260506001609 45 22 7.0 14.0 0.00 0.00 0.00 81 1016.1
20260506000139 46 3 10.0 16.0 0.00 0.00 0.00 81 1016.0
20260505234556 46 347 12.0 19.0 0.00 0.00 0.00 80 1016.1
20260505233059 46 9 11.0 17.0 0.00 0.00 0.00 80 1016.1
20260505231612 46 5 12.0 18.0 0.00 0.00 0.00 78 1016.2
20260505230105 46 7 8.0 16.0 0.00 0.00 0.00 79 1016.1
20260505224627 47 16 6.0 13.0 0.00 0.00 0.00 78 1016.3
20260505223056 47 36 7.0 12.0 0.00 0.00 0.00 78 1016.3
20260505221600 47 27 7.0 12.0 0.00 0.00 0.00 78 1016.2
20260505220101 47 37 9.0 14.0 0.00 0.00 0.00 77 1016.4
20260505214600 48 10 9.0 16.0 0.00 0.00 0.00 79 1016.5
20260505213201 48 39 14.0 18.0 0.00 0.00 0.00 78 1016.4
20260505211557 48 40 12.0 20.0 0.00 0.00 0.00 79 1016.4
20260505210059 49 29 10.0 18.0 0.00 0.00 0.00 80 1016.4
20260505204801 49 32 9.0 13.0 0.00 0.00 0.00 79 1016.4
20260505203147 49 346 13.0 20.0 0.00 0.00 0.00 77 1016.3
20260505201555 50 39 16.0 20.0 0.00 0.00 0.00 78 1016.1
20260505200052 50 42 11.0 17.0 0.00 0.00 0.00 75 1015.9
20260505194606 50 39 13.0 16.0 0.00 0.00 0.00 75 1015.8
20260505193052 50 26 10.0 16.0 0.00 0.00 0.00 75 1015.7
20260505191606 50 10 14.0 21.0 0.00 0.00 0.00 73 1015.5
20260505190055 51 20 13.0 18.0 0.00 0.00 0.00 82 1015.4
20260505184554 51 41 15.0 18.0 0.00 0.00 0.00 81 1015.2
20260505183056 51 1 11.0 16.0 0.00 0.00 0.00 81 1015.1
20260505181557 52 39 12.0 19.0 0.00 0.00 0.00 82 1015.2
20260505174556 52 45 13.0 18.0 0.00 0.00 0.00 81 1015.2
20260505173112 52 42 12.0 17.0 0.00 0.00 0.00 79 1015.1
20260505171618 53 46 15.0 19.0 0.00 0.00 0.00 79 1015.1
20260505170056 53 39 17.0 25.0 0.00 0.00 0.00 78 1014.9
20260505163053 56 336 8.0 13.0 0.00 0.00 0.00 62 1014.6
20260505161557 56 322 9.0 13.0 0.00 0.00 0.00 62 1014.7
20260505153107 56 11 9.0 12.0 0.00 0.00 0.00 61 1014.7
20260505151601 56 352 10.0 13.0 0.00 0.00 0.00 61 1014.6
20260505150111 56 335 8.0 13.0 0.00 0.00 0.00 62 1014.5
20260505140154 56 328 4.0 7.0 0.00 0.00 0.00 61 1014.4
20260505124949 56 332 7.0 12.0 0.00 0.00 0.00 64 1014.5
20260505121624 56 328 6.0 10.0 0.00 0.00 0.00 64 1014.5
20260505120057 55 328 6.0 10.0 0.00 0.00 0.00 65 1014.6
20260505114554 55 313 6.0 8.0 0.00 0.00 0.00 68 1014.6
20260505113059 55 41 7.0 10.0 0.00 0.00 0.00 67 1014.6
20260505111555 55 3 4.0 8.0 0.00 0.00 0.00 68 1014.7
20260505094558 53 342 9.0 12.0 0.00 0.00 0.00 71 1015.2
20260505084603 52 325 7.0 12.0 0.00 0.00 0.00 76 1015.3
20260505061626 44 266 1.0 2.0 0.00 0.00 0.00 96 1015.5
20260505054920 43 266 0.0 2.0 0.00 0.00 0.00 96 1015.4
20260505053151 42 263 1.0 2.0 0.00 0.00 0.00 95 1015.3
20260505051554 42 262 1.0 3.0 0.00 0.00 0.00 96 1015.4
20260505041606 42 0 0.0 3.0 0.00 0.00 0.00 95 1015.3
20260505034554 44 0 0.0 1.0 0.00 0.00 0.00 95 1015.2
20260505033053 44 0 0.0 1.0 0.00 0.00 0.00 95 1015.1
20260505031554 44 308 0.0 1.0 0.00 0.00 0.00 95 1015.1
20260505030104 44 0 0.0 0.0 0.00 0.00 0.00 95 1015.1
20260505024617 44 0 0.0 0.0 0.00 0.00 0.00 95 1015.2
20260505023059 45 0 0.0 1.0 0.00 0.00 0.00 95 1015.4
20260505021601 44 0 0.0 0.0 0.00 0.00 0.00 95 1015.4
20260505020108 44 0 0.0 1.0 0.00 0.00 0.00 95 1015.4
20260505014556 45 279 0.0 1.0 0.00 0.00 0.00 95 1015.5